CW1936 Weather Reports


time (UTC)temp
C
wind
direction
speed
KPH
gust
KPH
rain 1hr
cm
rain 24hr
cm
rain mn
cm
humidity
%
barometer
mb
20260507201507 17 18 0.0 0.0 0.00 0.00 0.00 65 1016.9
20260507200009 17 18 0.0 0.0 0.00 0.00 0.00 65 1017.1
20260507194520 17 18 0.0 0.0 0.00 0.00 0.00 65 1017.2
20260507193007 17 18 0.0 0.0 0.00 0.00 0.00 70 1017.2
20260507191505 17 18 0.0 0.0 0.00 0.00 0.00 72 1017.1
20260507190010 17 18 0.0 0.0 0.00 0.00 0.00 72 1017.0
20260507184504 17 18 0.0 0.0 0.00 0.00 0.00 73 1016.9
20260507183003 17 18 0.0 0.0 0.00 0.00 0.00 73 1016.7
20260507181502 17 18 0.0 0.0 0.00 0.00 0.00 72 1016.8
20260507180001 18 18 0.0 0.0 0.00 0.00 0.00 71 1016.7
20260507174501 18 18 0.0 0.0 0.00 0.00 0.00 70 1016.7
20260507173120 18 18 0.0 0.0 0.00 0.00 0.00 69 1016.6
20260507171601 20 18 0.0 0.0 0.00 0.00 0.00 67 1016.5
20260507170100 20 18 0.0 0.0 0.00 0.00 0.00 62 1016.6
20260507164631 21 18 0.0 0.0 0.00 0.00 0.00 60 1016.6
20260507163100 21 18 0.0 0.0 0.00 0.00 0.00 59 1016.6
20260507161604 21 25 0.0 3.2 0.00 0.00 0.00 58 1016.7
20260507160058 21 316 0.0 3.2 0.00 0.00 0.00 63 1016.5
20260507154600 21 27 0.0 0.0 0.00 0.00 0.00 68 1016.3
20260507153058 21 32 0.0 0.0 0.00 0.00 0.00 67 1016.2
20260507151556 21 32 0.0 1.6 0.00 0.00 0.00 68 1016.3
20260507150056 22 6 0.0 1.6 0.00 0.00 0.00 70 1016.3
20260507144600 22 41 0.0 3.2 0.00 0.00 0.00 67 1016.4
20260507143100 22 28 0.0 1.6 0.00 0.00 0.00 65 1016.6
20260507141556 22 37 1.6 8.0 0.00 0.00 0.00 61 1016.6
20260507140053 25 25 1.6 6.4 0.00 0.00 0.00 52 1016.5
20260507134552 26 43 0.0 3.2 0.00 0.00 0.00 36 1016.5
20260507133052 26 29 0.0 0.0 0.00 0.00 0.00 33 1016.6
20260507131555 26 105 0.0 0.0 0.00 0.00 0.00 32 1016.7
20260507130053 25 46 0.0 1.6 0.00 0.00 0.00 32 1016.7
20260507124600 25 89 0.0 1.6 0.00 0.00 0.00 34 1016.8
20260507123047 25 102 0.0 0.0 0.00 0.00 0.00 30 1017.0
20260507121546 26 101 0.0 0.0 0.00 0.00 0.00 35 1017.0
20260507120046 25 32 0.0 0.0 0.00 0.00 0.00 35 1017.2
20260507114603 25 127 0.0 1.6 0.00 0.00 0.00 33 1017.1
20260507113103 25 23 0.0 3.2 0.00 0.00 0.00 33 1017.3
20260507111546 24 121 1.6 6.4 0.00 0.00 0.00 34 1017.1
20260507110043 25 141 0.0 1.6 0.00 0.00 0.00 32 1017.1
20260507104542 25 58 0.0 0.0 0.00 0.00 0.00 35 1017.2
20260507103049 24 120 0.0 0.0 0.00 0.00 0.00 38 1017.2
20260507101540 24 11 0.0 0.0 0.00 0.00 0.00 40 1017.2
20260507100038 24 72 0.0 0.0 0.00 0.00 0.00 36 1017.4
20260507094541 25 63 0.0 0.0 0.00 0.00 0.00 38 1017.6
20260507093037 25 104 0.0 0.0 0.00 0.00 0.00 35 1017.5
20260507091541 25 120 0.0 0.0 0.00 0.00 0.00 35 1017.7
20260507090034 25 98 0.0 0.0 0.00 0.00 0.00 35 1017.9
20260507084541 23 116 0.0 0.0 0.00 0.00 0.00 32 1017.9
20260507083030 24 117 0.0 0.0 0.00 0.00 0.00 33 1017.7
20260507081536 23 116 0.0 0.0 0.00 0.00 0.00 35 1017.6
20260507080029 23 120 0.0 0.0 0.00 0.00 0.00 36 1017.6
20260507074531 25 103 0.0 0.0 0.00 0.00 0.00 35 1017.4
20260507073024 24 110 0.0 0.0 0.00 0.00 0.00 36 1017.4
20260507071521 23 94 0.0 0.0 0.00 0.00 0.00 41 1017.4
20260507070018 23 34 0.0 0.0 0.00 0.00 0.00 44 1017.2
20260507064516 23 87 0.0 0.0 0.00 0.00 0.00 44 1017.1
20260507063012 21 120 0.0 0.0 0.00 0.00 0.00 63 1017.0
20260507061510 21 147 0.0 0.0 0.00 0.00 0.00 62 1016.9
20260507060007 20 117 0.0 0.0 0.00 0.00 0.00 64 1017.0
20260507054504 20 119 0.0 0.0 0.00 0.00 0.00 64 1016.7
20260507053002 20 124 0.0 0.0 0.00 0.00 0.00 63 1016.6
20260507051600 20 121 0.0 0.0 0.00 0.00 0.00 63 1016.7
20260507050056 18 119 0.0 0.0 0.00 0.00 0.00 66 1016.4
20260507044606 18 122 0.0 0.0 0.00 0.00 0.00 66 1016.3
20260507043104 18 265 0.0 0.0 0.00 0.00 0.00 65 1016.2
20260507041555 17 270 0.0 0.0 0.00 0.00 0.00 66 1016.1
20260507040045 15 270 0.0 0.0 0.00 0.00 0.00 70 1016.0
20260507034546 14 270 0.0 0.0 0.00 0.00 0.00 70 1016.0
20260507033045 13 270 0.0 0.0 0.00 0.00 0.00 70 1015.9
20260507031547 13 270 0.0 0.0 0.00 0.00 0.00 67 1015.7
20260507030044 13 270 0.0 0.0 0.00 0.00 0.00 65 1015.7
20260507024547 13 270 0.0 0.0 0.00 0.00 0.00 71 1015.5
20260507023052 13 270 0.0 0.0 0.00 0.00 0.00 71 1015.4
20260507021541 14 270 0.0 0.0 0.00 0.00 0.00 64 1015.4
20260507020049 13 270 0.0 0.0 0.00 0.00 0.00 64 1015.3
20260507014538 13 270 0.0 0.0 0.00 0.00 0.00 65 1015.2
20260507013038 13 270 0.0 0.0 0.00 0.00 0.00 67 1015.1
20260507011544 13 270 0.0 0.0 0.00 0.00 0.00 65 1015.3
20260507010036 13 270 0.0 0.0 0.00 0.00 0.00 74 1015.5
20260507004532 13 270 0.0 0.0 0.00 0.00 0.00 70 1015.5
20260507003030 14 270 0.0 0.0 0.00 0.00 0.00 68 1015.6
20260507001601 14 270 0.0 0.0 0.00 0.00 0.00 73 1015.6
20260507000032 14 270 0.0 0.0 0.00 0.00 0.00 71 1015.7
20260506234527 14 270 0.0 0.0 0.00 0.00 0.00 70 1015.6
20260506233026 14 270 0.0 0.0 0.00 0.00 0.00 76 1015.6
20260506231525 14 270 0.0 0.0 0.00 0.00 0.00 74 1015.7
20260506230038 14 270 0.0 0.0 0.00 0.00 0.00 74 1015.8
20260506224523 15 270 0.0 0.0 0.00 0.00 0.00 72 1016.0
20260506223028 14 270 0.0 0.0 0.00 0.00 0.00 75 1016.0
20260506221519 14 270 0.0 0.0 0.00 0.00 0.00 76 1016.1
20260506220019 14 270 0.0 0.0 0.00 0.00 0.00 77 1016.2
20260506214518 14 270 0.0 0.0 0.00 0.00 0.00 76 1016.1
20260506213017 14 270 0.0 0.0 0.00 0.00 0.00 77 1016.2
20260506211512 15 270 0.0 0.0 0.00 0.00 0.00 80 1016.4
20260506210017 15 270 0.0 0.0 0.00 0.00 0.00 79 1016.4
20260506204510 15 270 0.0 0.0 0.00 0.00 0.00 80 1016.5
20260506203010 15 270 0.0 0.0 0.00 0.00 0.00 79 1016.6